THORAD AGENA D DEB, 20360

Orbit data source: Space-Track

THORAD AGENA D DEB, 20360 is space debris in SSO originally from a launch on Wed, 08 Apr 1970 UTC launched from the Air Force Western Test Range (AFWTR). Debris objects in space refer to the collection of defunct objects orbiting the Earth. Examples of debris include non-operational satellites, rocket bodies, and fragments generated from explosions, collisions, or faulty payload assembly.

Loading next visibility...
Identifier
20360, 1970-025QF
Orbit
SSO
Country
Flag of USUS
Related business
Manufacturer
Unknown
Mission
Spacecraft
Bus & Motor
Unknown
Mass
Unknown
Launch date (UTC)
1970-04-08 (56 years ago)
Launch vehicle
Unknown
Launch site
Air Force Western Test Range (AFWTR)
Object type
Payload
Rocket body
Debris
Shape & HBR
Unknown shape, 0.1 m
Radar Cross Section
Small (<0.1 m²)

Expand to show TLE details & history
Last TLE update: 12 hours ago

TLE from 12 hours ago
0 THORAD AGENA D DEB
1 20360U 70025QF  26256.41805985  .00006119  00000-0  29470-2 0  9997
2 20360 100.4150 229.4858 0029364 356.5852 156.8076 14.18951474844991
Epoch: 2026-09-13T10:02Z
TLE epoch observation values (Epoch: 2026-09-13T10:02:00.371Z)
Latitude
26.04111°
Longitude
-88.30326°
Altitude
851.466 km
Speed
7.419 km/s
True Right ascension
03h 38m 26s
True Declination
25° 54' 27"
Sunlit
Object was in daylight at epoch
Visualization orbit readout
Latitude
Unknown
Longitude
Unknown
Altitude
Unknown
Speed
Unknown
Apparent Right ascension
Unknown
Apparent Declination
Unknown
Sunlit
N/A
Visualization observer readout
Local Sidereal Time
14:17:26
Azimuth
Unknown
Elevation
Unknown
Doppler factor
Unknown
Orbital elements
Apogee altitude
847.305 km
Perigee altitude
804.996 km
Semi-major axis
7,204.287 km
Eccentricity
0.00294
Inclination
100.415°
RAAN
229.4858°
Arg. of periapsis
356.5852°
True anomaly
156.93967°
Mean anomaly
156.8076°
Eccentric anomaly
156.87368°
Mean motion
3.54941 °/min
Orbital period
101.43 mins
BSTAR
0.002947

Documentation

Showing up to 5 results
|